Regional Weather Roundup
Issued by NWS

Home | Current Version | Previous Version | Text Only | Print | Product List | Glossary On
Versions: 1 2 3 4 5 6 7 8 9 10 11 12 13 14 15 16 17 18 19 20 21 22 23 24 25 26 27 28 29 30 31 32 33 34 35 36 37 38 39 40 41 42 43 44 45 46 47 48 49 50
000
ASUS43 KBIS 290010
RWRND

NORTH DAKOTA REGIONAL WEATHER ROUNDUP
NATIONAL WEATHER SERVICE BISMARCK ND
700 PM CDT FRI AUG 28 2015

NOTE: "FAIR" INDICATES FEW OR NO CLOUDS BELOW 12,000 FEET WITH NO
SIGNIFICANT WEATHER AND/OR OBSTRUCTIONS TO VISIBILITY.


NDZ001>003-009>011-017-290100-
NORTHWEST NORTH DAKOTA

CITY           SKY/WX    TMP DP  RH WIND       PRES   REMARKS
WILLISTON      PTSUNNY   87  46  24 SW6       29.88S HAZE
6HR MIN TEMP:  81; 6HR MAX TEMP:  91;

MINOT          MOSUNNY   83  62  49 E5        29.85S
MINOT AFB      MOSUNNY   85  62  46 E2        29.84S
$$

NDZ018>021-031>035-040>046-290100-
SOUTHWEST NORTH DAKOTA

CITY           SKY/WX    TMP DP  RH WIND       PRES   REMARKS
BISMARCK       MOSUNNY   87  64  46 S3        29.88R
6HR MIN TEMP:  83; 6HR MAX TEMP:  89;

DICKINSON      PTSUNNY   86  49  27 W7        29.92S
GARRISON         N/A     80  31  16 CALM      29.88S
6HR MIN TEMP:  79; 6HR MAX TEMP:  86;

HETTINGER ARPT MOSUNNY   82  52  35 W7        29.97R HAZE
$$

NDZ004>008-012>016-024-026-027-054-290100-
NORTHEAST NORTH DAKOTA

CITY           SKY/WX    TMP DP  RH WIND       PRES   REMARKS
GRAND FORKS    PTSUNNY   79  68  69 S15       29.82R
GRND FRKS AFB  SUNNY     80  70  70 SW10      29.83R
DEVILS LAKE    SUNNY     79  64  61 W6        29.85R
$$

NDZ022-023-025-028>030-036>039-047>053-290100-
SOUTHEAST NORTH DAKOTA

CITY           SKY/WX    TMP DP  RH WIND       PRES   REMARKS
FARGO          SUNNY     80  67  64 S16       29.87S
6HR MIN TEMP:  79; 6HR MAX TEMP:  83;

JAMESTOWN      SUNNY     78  70  76 S13       29.87S
$$



USA.gov is the U.S. government's official web portal to all federal, state and local government web resources and services.